Content
SEND FEEDBACK

Daily
Averages
Monthly
Summary
United States of America

AGAT, GUAM


Home > North America > United States > Guam
Elevation: 364 feet     Latitude: 13 33N     Longitude: 144 50E

WEATHER
 
SELECT A DAY
Number of Records: 208,807;   Date Range: 1/1/95 - 7/7/14
 
SHARE

PRINT THIS DATA

[ ← Previous Day ]
WEATHER ALMANAC - MAY 13, 2013
[ Next Day → ]
[ °C ]   °F
Weather ElementAverageHighLow
Temperature83.3 °F89.1 °F (11:54 am)78.8 °F (12:13 am)
Dewpoint75.4 °F77 °F (7:54 am)73.4 °F (12:13 am)
Humidity77.4 %88 % (12:54 am)63 % (1:54 pm)
Barometer29.87 in29.91 in (12:13 am)29.83 in (2:54 pm)
Wind Speed6.6 mph12.7 mph (1:54 am)
Wind Gust18.4 mph (1:54 am)
Weather ElementAverage
Visibility9.2 mi
Wind DirectionESE (97.6 °)

Weather ElementTotal
Precipitation0.50 in
Cooling Degree Days19 (Base 65)
Growing Degree Days34 (Base 50)
Averaged from 29 records on May 13, 2013
WEATHER CONDITIONS BREAKOUT
WIND DIRECTION BREAKOUT
WEATHER BY HOUR - MAY 13, 2013
[ °C ]   °F
Local TimeTemperatureDewpointHumidityBarometerVisibilityWind DirectionWind SpeedGust SpeedPrecipitationEventsConditions
12:13 AM78.8 °F73.4 °F83 %29.91 in10.0 miSouth (170°)4.6 mphOvercast
12:54 AM79.0 °F75.0 °F88 %29.88 in10.0 miCalm0.00 inScattered Clouds
1:54 AM79.0 °F75.0 °F88 %29.87 in3.0 miEast (90°)12.7 mph18.4 mph0.06 inRainHeavy Rain
2:12 AM78.8 °F73.4 °F83 %29.89 in2.5 miESE (110°)4.6 mph0.09 inRainHeavy Rain
2:20 AM78.8 °F73.4 °F83 %29.88 in10.0 miCalm0.09 inRainLight Rain
2:54 AM79.0 °F73.9 °F84 %29.85 in10.0 miEast (80°)3.5 mph0.09 inMostly Cloudy
3:54 AM81.0 °F75.9 °F85 %29.84 in10.0 miEast (80°)4.6 mphScattered Clouds
4:54 AM81.0 °F75.9 °F85 %29.85 in10.0 miEast (100°)3.5 mphPartly Cloudy
5:54 AM81.0 °F75.9 °F85 %29.86 in10.0 miCalmPartly Cloudy
6:18 AM80.6 °F75.2 °F84 %29.89 in2.5 miEast (100°)4.6 mph0.05 inRainRain
6:28 AM80.6 °F75.2 °F84 %29.89 in8.0 miESE (120°)3.5 mph0.06 inRainLight Rain
6:54 AM80.1 °F75.0 °F85 %29.88 in10.0 miESE (110°)4.6 mph0.06 inPartly Cloudy
7:54 AM84.0 °F77.0 °F79 %29.89 in10.0 miEast (100°)8.1 mphClear
8:54 AM86.0 °F75.9 °F72 %29.90 in10.0 miESE (110°)9.2 mphPartly Cloudy
9:54 AM88.0 °F77.0 °F70 %29.90 in10.0 miSE (130°)10.4 mph17.3 mphScattered Clouds
10:54 AM88.0 °F75.9 °F67 %29.89 in10.0 miESE (120°)10.4 mphScattered Clouds
11:54 AM89.1 °F75.9 °F65 %29.88 in10.0 miESE (110°)11.5 mph18.4 mphScattered Clouds
12:54 PM88.0 °F75.9 °F67 %29.86 in10.0 miSE (130°)8.1 mphScattered Clouds
1:54 PM89.1 °F75.0 °F63 %29.85 in10.0 miSE (140°)9.2 mphScattered Clouds
2:54 PM89.1 °F75.0 °F63 %29.83 in10.0 miESE (120°)11.5 mphPartly Cloudy
3:54 PM87.1 °F75.0 °F67 %29.83 in10.0 miEast (90°)12.7 mphMostly Cloudy
4:54 PM86.0 °F75.0 °F70 %29.83 in10.0 miEast (100°)6.9 mphMostly Cloudy
5:54 PM86.0 °F75.0 °F70 %29.83 in10.0 miEast (100°)9.2 mphMostly Cloudy
6:54 PM84.9 °F75.9 °F74 %29.85 in10.0 miEast (90°)6.9 mphScattered Clouds
7:54 PM84.0 °F75.9 °F76 %29.87 in10.0 miEast (90°)5.8 mphPartly Cloudy
8:54 PM84.0 °F75.9 °F76 %29.89 in10.0 miESE (110°)6.9 mphPartly Cloudy
9:54 PM82.0 °F77.0 °F85 %29.90 in10.0 miESE (110°)6.9 mphMostly Cloudy
10:54 PM82.0 °F75.9 °F82 %29.91 in10.0 miESE (110°)5.8 mphPartly Cloudy
11:54 PM82.0 °F75.9 °F82 %29.89 in10.0 miESE (110°)6.9 mphPartly Cloudy
Hourly data recorded from PGUM, located miles away from Agat, Guam







STORIES FROM OUR PARTNERS